"Sample Date","Sample Time","Sample Value","Units","Flow Rate","Sample Interval","Number Channels","Micron Size 0","Counts/Channel 0","Micron Size 1","Counts/Channel 1","Micron Size 2","Counts/Channel 2","Micron Size 3","Counts/Channel 3","Micron Size 4","Counts/Channel 4","Micron Size 5","Counts/Channel 5","Micron Size 6","Counts/Channel 6","Micron Size 7","Counts/Channel 7","Micron Size 8","Counts/Channel 8","Micron Size 9","Counts/Channel 9","Micron Size 10","Counts/Channel 10","Micron Size 11","Counts/Channel 11","Micron Size 12","Counts/Channel 12","Micron Size 13","Counts/Channel 13","Micron Size 14","Counts/Channel 14","Micron Size 15","Counts/Channel 15","Micron Size 16","Counts/Channel 16","Micron Size 17","Counts/Channel 17","Micron Size 18","Counts/Channel 18","Micron Size 19","Counts/Channel 19","Micron Size 20","Counts/Channel 20","Micron Size 21","Counts/Channel 21","Micron Size 22","Counts/Channel 22","Micron Size 23","Counts/Channel 23","Micron Size 24","Counts/Channel 24","Micron Size 25","Counts/Channel 25","Micron Size 26","Counts/Channel 26","Micron Size 27","Counts/Channel 27","Micron Size 28","Counts/Channel 28","Micron Size 29","Counts/Channel 29","Micron Size 30","Counts/Channel 30","Micron Size 31","Counts/Channel 31"
"03/09/08","21:00:04",20304.000,"cc",28331.719,6.00,6,0.100,11872.000,0.200,5514.000,0.300,1552.000,0.500,1103.000,1.000,263.000,5.000,0
"03/09/08","21:00:10",20518.000,"cc",28258.037,6.00,6,0.100,12003.000,0.200,5587.000,0.300,1572.000,0.500,1087.000,1.000,269.000,5.000,0
"03/09/08","21:00:16",20371.000,"cc",28439.209,6.00,6,0.100,11906.000,0.200,5563.000,0.300,1586.000,0.500,1067.000,1.000,249.000,5.000,0
"03/09/08","21:00:22",20594.000,"cc",28271.797,6.00,6,0.100,12075.000,0.200,5455.000,0.300,1639.000,0.500,1164.000,1.000,261.000,5.000,0
"03/09/08","21:00:28",21646.000,"cc",28324.375,6.00,6,0.100,12658.000,0.200,5752.000,0.300,1655.000,0.500,1265.000,1.000,316.000,5.000,0
"03/09/08","21:00:34",20671.000,"cc",28215.648,6.00,6,0.100,12118.000,0.200,5478.000,0.300,1609.000,0.500,1173.000,1.000,293.000,5.000,0
"03/09/08","21:00:40",20804.000,"cc",28355.014,6.00,6,0.100,12270.000,0.200,5540.000,0.300,1585.000,0.500,1136.000,1.000,273.000,5.000,0
"03/09/08","21:00:46",20483.000,"cc",28348.514,6.00,6,0.100,12003.000,0.200,5486.000,0.300,1608.000,0.500,1130.000,1.000,256.000,5.000,0
"03/09/08","21:00:52",20647.000,"cc",28302.211,6.00,6,0.100,12226.000,0.200,5425.000,0.300,1580.000,0.500,1151.000,1.000,265.000,5.000,0
"03/09/08","21:00:58",20426.000,"cc",28277.822,6.00,6,0.100,11928.000,0.200,5544.000,0.300,1530.000,0.500,1149.000,1.000,275.000,5.000,0
"03/09/08","21:01:04",21343.000,"cc",28310.932,6.00,6,0.100,12280.000,0.200,5805.000,0.300,1711.000,0.500,1221.000,1.000,326.000,5.000,0
"03/09/08","21:01:10",20821.000,"cc",28364.154,6.00,6,0.100,12114.000,0.200,5714.000,0.300,1595.000,0.500,1121.000,1.000,277.000,5.000,0
"03/09/08","21:01:16",20665.000,"cc",28318.203,6.00,6,0.100,12001.000,0.200,5526.000,0.300,1680.000,0.500,1190.000,1.000,268.000,5.000,0
"03/09/08","21:01:22",20663.000,"cc",28298.647,6.00,6,0.100,12068.000,0.200,5479.000,0.300,1682.000,0.500,1150.000,1.000,284.000,5.000,0
"03/09/08","21:01:28",20861.000,"cc",28363.248,6.00,6,0.100,12262.000,0.200,5670.000,0.300,1577.000,0.500,1076.000,1.000,276.000,5.000,0
"03/09/08","21:01:34",20685.000,"cc",28361.500,6.00,6,0.100,12051.000,0.200,5620.000,0.300,1633.000,0.500,1129.000,1.000,252.000,5.000,0
"03/09/08","21:01:40",20662.000,"cc",28285.934,6.00,6,0.100,12090.000,0.200,5591.000,0.300,1583.000,0.500,1132.000,1.000,266.000,5.000,0
"03/09/08","21:01:46",20546.000,"cc",28325.668,6.00,6,0.100,12016.000,0.200,5569.000,0.300,1517.000,0.500,1179.000,1.000,265.000,5.000,0
"03/09/08","21:01:52",20805.000,"cc",28259.525,6.00,6,0.100,12113.000,0.200,5631.000,0.300,1633.000,0.500,1155.000,1.000,273.000,5.000,0
"03/09/08","21:01:58",20784.000,"cc",28327.705,6.00,6,0.100,12271.000,0.200,5510.000,0.300,1620.000,0.500,1115.000,1.000,268.000,5.000,0
"03/09/08","21:02:04",20698.000,"cc",28352.057,6.00,6,0.100,12097.000,0.200,5652.000,0.300,1592.000,0.500,1078.000,1.000,279.000,5.000,0
"03/09/08","21:02:10",21016.000,"cc",28264.316,6.00,6,0.100,12202.000,0.200,5677.000,0.300,1664.000,0.500,1177.000,1.000,296.000,5.000,0
"03/09/08","21:02:16",20664.000,"cc",28358.121,6.00,6,0.100,12084.000,0.200,5516.000,0.300,1582.000,0.500,1194.000,1.000,288.000,5.000,0
"03/09/08","21:02:22",21027.000,"cc",28309.381,6.00,6,0.100,12430.000,0.200,5507.000,0.300,1588.000,0.500,1226.000,1.000,276.000,5.000,0
"03/09/08","21:02:28",20954.000,"cc",28328.676,6.00,6,0.100,12246.000,0.200,5599.000,0.300,1638.000,0.500,1209.000,1.000,262.000,5.000,0
"03/09/08","21:02:34",21087.000,"cc",28290.131,6.00,6,0.100,12251.000,0.200,5727.000,0.300,1651.000,0.500,1164.000,1.000,294.000,5.000,0
"03/09/08","21:02:40",20921.000,"cc",28381.014,6.00,6,0.100,12347.000,0.200,5579.000,0.300,1568.000,0.500,1151.000,1.000,276.000,5.000,0
"03/09/08","21:02:46",20681.000,"cc",28274.861,6.00,6,0.100,12006.000,0.200,5592.000,0.300,1593.000,0.500,1202.000,1.000,288.000,5.000,0
"03/09/08","21:02:52",20707.000,"cc",28345.318,6.00,6,0.100,12215.000,0.200,5443.000,0.300,1624.000,0.500,1143.000,1.000,282.000,5.000,0
"03/09/08","21:02:58",21130.000,"cc",28273.348,6.00,6,0.100,12264.000,0.200,5760.000,0.300,1622.000,0.500,1198.000,1.000,286.000,5.000,0
"03/09/08","21:03:04",21135.000,"cc",28287.967,6.00,6,0.100,12451.000,0.200,5552.000,0.300,1654.000,0.500,1210.000,1.000,268.000,5.000,0
"03/09/08","21:03:10",20905.000,"cc",28294.043,6.00,6,0.100,12085.000,0.200,5778.000,0.300,1599.000,0.500,1141.000,1.000,302.000,5.000,0
"03/09/08","21:03:16",21046.000,"cc",28393.633,6.00,6,0.100,12245.000,0.200,5738.000,0.300,1626.000,0.500,1175.000,1.000,262.000,5.000,0
"03/09/08","21:03:22",21244.000,"cc",28319.121,6.00,6,0.100,12505.000,0.200,5568.000,0.300,1713.000,0.500,1153.000,1.000,305.000,5.000,0
"03/09/08","21:03:28",21050.000,"cc",28371.260,6.00,6,0.100,12372.000,0.200,5573.000,0.300,1619.000,0.500,1214.000,1.000,272.000,5.000,0
"03/09/08","21:03:34",20953.000,"cc",28232.008,6.00,6,0.100,12237.000,0.200,5681.000,0.300,1559.000,0.500,1183.000,1.000,293.000,5.000,0
"03/09/08","21:03:40",21043.000,"cc",28307.789,6.00,6,0.100,12389.000,0.200,5608.000,0.300,1614.000,0.500,1142.000,1.000,290.000,5.000,0
"03/09/08","21:03:46",20981.000,"cc",28335.047,6.00,6,0.100,12212.000,0.200,5710.000,0.300,1636.000,0.500,1142.000,1.000,281.000,5.000,0
"03/09/08","21:03:52",21321.000,"cc",28327.045,6.00,6,0.100,12471.000,0.200,5736.000,0.300,1609.000,0.500,1202.000,1.000,303.000,5.000,0
"03/09/08","21:03:58",21332.000,"cc",28336.805,6.00,6,0.100,12473.000,0.200,5623.000,0.300,1715.000,0.500,1207.000,1.000,314.000,5.000,0
"03/09/08","21:04:04",21063.000,"cc",28345.586,6.00,6,0.100,12316.000,0.200,5680.000,0.300,1646.000,0.500,1120.000,1.000,301.000,5.000,0
"03/09/08","21:04:10",20920.000,"cc",28341.299,6.00,6,0.100,12167.000,0.200,5659.000,0.300,1629.000,0.500,1179.000,1.000,286.000,5.000,0
"03/09/08","21:04:16",21918.000,"cc",28193.395,6.00,6,0.100,12638.000,0.200,5815.000,0.300,1844.000,0.500,1297.000,1.000,324.000,5.000,0
"03/09/08","21:04:22",21889.000,"cc",28323.881,6.00,6,0.100,12699.000,0.200,5893.000,0.300,1751.000,0.500,1244.000,1.000,302.000,5.000,0
"03/09/08","21:04:28",21054.000,"cc",28377.842,6.00,6,0.100,12251.000,0.200,5684.000,0.300,1667.000,0.500,1114.000,1.000,338.000,5.000,0
"03/09/08","21:04:34",21275.000,"cc",28319.940,6.00,6,0.100,12446.000,0.200,5700.000,0.300,1638.000,0.500,1197.000,1.000,294.000,5.000,0
"03/09/08","21:04:40",21365.000,"cc",28315.424,6.00,6,0.100,12421.000,0.200,5710.000,0.300,1728.000,0.500,1205.000,1.000,301.000,5.000,0
"03/09/08","21:04:46",21676.000,"cc",28377.162,6.00,6,0.100,12699.000,0.200,5782.000,0.300,1724.000,0.500,1215.000,1.000,256.000,5.000,0
"03/09/08","21:04:52",21504.000,"cc",28337.606,6.00,6,0.100,12480.000,0.200,5839.000,0.300,1663.000,0.500,1245.000,1.000,277.000,5.000,0
"03/09/08","21:04:58",21342.000,"cc",28253.891,6.00,6,0.100,12532.000,0.200,5576.000,0.300,1630.000,0.500,1292.000,1.000,312.000,5.000,0
"03/09/08","21:05:04",21445.000,"cc",28339.775,6.00,6,0.100,12573.000,0.200,5787.000,0.300,1664.000,0.500,1147.000,1.000,274.000,5.000,0
"03/09/08","21:05:10",21629.000,"cc",28270.166,6.00,6,0.100,12625.000,0.200,5764.000,0.300,1671.000,0.500,1250.000,1.000,319.000,5.000,0
"03/09/08","21:05:16",21344.000,"cc",28312.117,6.00,6,0.100,12431.000,0.200,5858.000,0.300,1633.000,0.500,1159.000,1.000,263.000,5.000,0
"03/09/08","21:05:22",21256.000,"cc",28313.424,6.00,6,0.100,12483.000,0.200,5709.000,0.300,1592.000,0.500,1191.000,1.000,281.000,5.000,0
"03/09/08","21:05:28",21522.000,"cc",28337.408,6.00,6,0.100,12508.000,0.200,5711.000,0.300,1719.000,0.500,1244.000,1.000,340.000,5.000,0
"03/09/08","21:05:34",21782.000,"cc",28331.100,6.00,6,0.100,12766.000,0.200,5878.000,0.300,1675.000,0.500,1180.000,1.000,283.000,5.000,0
"03/09/08","21:05:40",21897.000,"cc",28348.443,6.00,6,0.100,12801.000,0.200,5814.000,0.300,1731.000,0.500,1249.000,1.000,302.000,5.000,0
"03/09/08","21:05:46",21641.000,"cc",28340.184,6.00,6,0.100,12702.000,0.200,5749.000,0.300,1694.000,0.500,1193.000,1.000,303.000,5.000,0
"03/09/08","21:05:52",21305.000,"cc",28276.006,6.00,6,0.100,12389.000,0.200,5729.000,0.300,1691.000,0.500,1203.000,1.000,293.000,5.000,0
"03/09/08","21:05:58",21605.000,"cc",28343.090,6.00,6,0.100,12516.000,0.200,5849.000,0.300,1709.000,0.500,1231.000,1.000,300.000,5.000,0
"03/09/08","21:06:04",21583.000,"cc",28248.973,6.00,6,0.100,12419.000,0.200,5976.000,0.300,1675.000,0.500,1224.000,1.000,289.000,5.000,0
"03/09/08","21:06:10",21855.000,"cc",28311.826,6.00,6,0.100,12721.000,0.200,5873.000,0.300,1720.000,0.500,1246.000,1.000,295.000,5.000,0
"03/09/08","21:06:16",21483.000,"cc",28416.426,6.00,6,0.100,12513.000,0.200,5763.000,0.300,1692.000,0.500,1228.000,1.000,287.000,5.000,0
"03/09/08","21:06:22",21477.000,"cc",28268.129,6.00,6,0.100,12538.000,0.200,5679.000,0.300,1738.000,0.500,1222.000,1.000,300.000,5.000,0
"03/09/08","21:06:28",21985.000,"cc",28305.652,6.00,6,0.100,12903.000,0.200,5854.000,0.300,1742.000,0.500,1198.000,1.000,288.000,5.000,0
"03/09/08","21:06:34",21450.000,"cc",28282.709,6.00,6,0.100,12561.000,0.200,5774.000,0.300,1690.000,0.500,1142.000,1.000,283.000,5.000,0
"03/09/08","21:06:40",21814.000,"cc",28321.875,6.00,6,0.100,12775.000,0.200,5818.000,0.300,1715.000,0.500,1225.000,1.000,281.000,5.000,0
"03/09/08","21:06:46",21831.000,"cc",28365.289,6.00,6,0.100,12631.000,0.200,5793.000,0.300,1814.000,0.500,1277.000,1.000,316.000,5.000,0
"03/09/08","21:06:52",21504.000,"cc",28353.354,6.00,6,0.100,12663.000,0.200,5753.000,0.300,1671.000,0.500,1175.000,1.000,242.000,5.000,0
"03/09/08","21:06:58",21399.000,"cc",28307.164,6.00,6,0.100,12561.000,0.200,5722.000,0.300,1638.000,0.500,1210.000,1.000,268.000,5.000,0
"03/09/08","21:07:04",21756.000,"cc",28305.756,6.00,6,0.100,12643.000,0.200,5799.000,0.300,1782.000,0.500,1233.000,1.000,299.000,5.000,0
"03/09/08","21:07:10",21248.000,"cc",28358.145,6.00,6,0.100,12450.000,0.200,5698.000,0.300,1639.000,0.500,1200.000,1.000,261.000,5.000,0
"03/09/08","21:07:16",21641.000,"cc",28346.959,6.00,6,0.100,12556.000,0.200,5896.000,0.300,1689.000,0.500,1178.000,1.000,322.000,5.000,0
"03/09/08","21:07:22",21585.000,"cc",28272.945,6.00,6,0.100,12555.000,0.200,5822.000,0.300,1683.000,0.500,1215.000,1.000,310.000,5.000,0
"03/09/08","21:07:28",21400.000,"cc",28347.565,6.00,6,0.100,12588.000,0.200,5728.000,0.300,1658.000,0.500,1138.000,1.000,288.000,5.000,0
"03/09/08","21:07:34",21479.000,"cc",28356.361,6.00,6,0.100,12454.000,0.200,5859.000,0.300,1701.000,0.500,1168.000,1.000,297.000,5.000,0
"03/09/08","21:07:40",21579.000,"cc",28197.152,6.00,6,0.100,12584.000,0.200,5829.000,0.300,1667.000,0.500,1230.000,1.000,269.000,5.000,0
"03/09/08","21:07:46",22065.000,"cc",28323.877,6.00,6,0.100,12891.000,0.200,5870.000,0.300,1809.000,0.500,1186.000,1.000,309.000,5.000,0
"03/09/08","21:07:52",21790.000,"cc",28334.945,6.00,6,0.100,12624.000,0.200,5947.000,0.300,1744.000,0.500,1195.000,1.000,280.000,5.000,0
"03/09/08","21:07:58",21855.000,"cc",28324.102,6.00,6,0.100,12628.000,0.200,6055.000,0.300,1731.000,0.500,1176.000,1.000,265.000,5.000,0
"03/09/08","21:08:04",22076.000,"cc",28308.486,6.00,6,0.100,12770.000,0.200,5903.000,0.300,1835.000,0.500,1244.000,1.000,324.000,5.000,0
"03/09/08","21:08:10",21828.000,"cc",28327.500,6.00,6,0.100,12562.000,0.200,5989.000,0.300,1767.000,0.500,1237.000,1.000,273.000,5.000,0
"03/09/08","21:08:16",21794.000,"cc",28269.844,6.00,6,0.100,12648.000,0.200,5847.000,0.300,1698.000,0.500,1275.000,1.000,326.000,5.000,0
"03/09/08","21:08:22",21780.000,"cc",28357.508,6.00,6,0.100,12555.000,0.200,5972.000,0.300,1704.000,0.500,1267.000,1.000,282.000,5.000,0
"03/09/08","21:08:28",22138.000,"cc",28294.742,6.00,6,0.100,12760.000,0.200,6039.000,0.300,1799.000,0.500,1231.000,1.000,309.000,5.000,0
"03/09/08","21:08:34",21908.000,"cc",28296.668,6.00,6,0.100,12767.000,0.200,5928.000,0.300,1722.000,0.500,1210.000,1.000,281.000,5.000,0
"03/09/08","21:08:40",22147.000,"cc",28289.238,6.00,6,0.100,12727.000,0.200,6166.000,0.300,1704.000,0.500,1256.000,1.000,294.000,5.000,0
"03/09/08","21:08:46",21702.000,"cc",28323.891,6.00,6,0.100,12649.000,0.200,5855.000,0.300,1693.000,0.500,1220.000,1.000,285.000,5.000,0
"03/09/08","21:08:52",21866.000,"cc",28337.871,6.00,6,0.100,12721.000,0.200,5908.000,0.300,1714.000,0.500,1254.000,1.000,269.000,5.000,0
"03/09/08","21:08:58",21704.000,"cc",28302.871,6.00,6,0.100,12535.000,0.200,5843.000,0.300,1737.000,0.500,1287.000,1.000,302.000,5.000,0
"03/09/08","21:09:04",21732.000,"cc",28359.440,6.00,6,0.100,12612.000,0.200,5976.000,0.300,1701.000,0.500,1168.000,1.000,275.000,5.000,0
"03/09/08","21:09:10",21966.000,"cc",28339.340,6.00,6,0.100,12695.000,0.200,5911.000,0.300,1792.000,0.500,1271.000,1.000,297.000,5.000,0
"03/09/08","21:09:16",22071.000,"cc",28317.830,6.00,6,0.100,12734.000,0.200,6062.000,0.300,1791.000,0.500,1243.000,1.000,241.000,5.000,0
"03/09/08","21:09:22",21700.000,"cc",28291.639,6.00,6,0.100,12640.000,0.200,5828.000,0.300,1735.000,0.500,1224.000,1.000,273.000,5.000,0
"03/09/08","21:09:28",21988.000,"cc",28383.002,6.00,6,0.100,12855.000,0.200,5940.000,0.300,1745.000,0.500,1191.000,1.000,257.000,5.000,0
"03/09/08","21:09:34",21980.000,"cc",28338.414,6.00,6,0.100,12616.000,0.200,6045.000,0.300,1804.000,0.500,1195.000,1.000,320.000,5.000,0
"03/09/08","21:09:40",21879.000,"cc",28308.268,6.00,6,0.100,12620.000,0.200,6053.000,0.300,1677.000,0.500,1265.000,1.000,264.000,5.000,0
"03/09/08","21:09:46",21860.000,"cc",28217.020,6.00,6,0.100,12505.000,0.200,6049.000,0.300,1801.000,0.500,1236.000,1.000,269.000,5.000,0
"03/09/08","21:09:52",22421.000,"cc",28242.822,6.00,6,0.100,12830.000,0.200,6143.000,0.300,1854.000,0.500,1302.000,1.000,292.000,5.000,0
"03/09/08","21:09:58",22476.000,"cc",28375.902,6.00,6,0.100,12791.000,0.200,6160.000,0.300,1811.000,0.500,1399.000,1.000,315.000,5.000,0
"03/09/08","21:10:04",22147.000,"cc",28382.211,6.00,6,0.100,12718.000,0.200,6124.000,0.300,1823.000,0.500,1220.000,1.000,262.000,5.000,0
"03/09/08","21:10:10",21749.000,"cc",28388.115,6.00,6,0.100,12566.000,0.200,6052.000,0.300,1649.000,0.500,1188.000,1.000,294.000,5.000,0
"03/09/08","21:10:16",21684.000,"cc",28349.893,6.00,6,0.100,12537.000,0.200,6003.000,0.300,1695.000,0.500,1171.000,1.000,278.000,5.000,0
"03/09/08","21:10:22",22241.000,"cc",28238.250,6.00,6,0.100,12838.000,0.200,6013.000,0.300,1776.000,0.500,1307.000,1.000,307.000,5.000,0
"03/09/08","21:10:28",22160.000,"cc",28336.268,6.00,6,0.100,12816.000,0.200,6073.000,0.300,1711.000,0.500,1251.000,1.000,309.000,5.000,0
"03/09/08","21:10:34",22158.000,"cc",28340.986,6.00,6,0.100,12564.000,0.200,6308.000,0.300,1735.000,0.500,1260.000,1.000,291.000,5.000,0
"03/09/08","21:10:40",22025.000,"cc",28305.994,6.00,6,0.100,12703.000,0.200,6044.000,0.300,1713.000,0.500,1279.000,1.000,286.000,5.000,0
"03/09/08","21:10:46",22580.000,"cc",28208.520,6.00,6,0.100,12724.000,0.200,6287.000,0.300,1909.000,0.500,1355.000,1.000,305.000,5.000,0
"03/09/08","21:10:52",22003.000,"cc",28343.330,6.00,6,0.100,12744.000,0.200,6006.000,0.300,1766.000,0.500,1224.000,1.000,263.000,5.000,0
"03/09/08","21:10:58",21533.000,"cc",28327.176,6.00,6,0.100,12409.000,0.200,5950.000,0.300,1680.000,0.500,1186.000,1.000,308.000,5.000,0
"03/09/08","21:11:04",22234.000,"cc",28328.875,6.00,6,0.100,12880.000,0.200,6049.000,0.300,1773.000,0.500,1253.000,1.000,279.000,5.000,0
"03/09/08","21:11:10",21946.000,"cc",28393.344,6.00,6,0.100,12630.000,0.200,5996.000,0.300,1835.000,0.500,1194.000,1.000,291.000,5.000,0
"03/09/08","21:11:16",22274.000,"cc",28307.176,6.00,6,0.100,12643.000,0.200,6286.000,0.300,1780.000,0.500,1278.000,1.000,287.000,5.000,0
"03/09/08","21:11:22",22187.000,"cc",28236.158,6.00,6,0.100,12587.000,0.200,6165.000,0.300,1859.000,0.500,1259.000,1.000,317.000,5.000,0
"03/09/08","21:11:28",22657.000,"cc",28365.131,6.00,6,0.100,12951.000,0.200,6178.000,0.300,1889.000,0.500,1347.000,1.000,292.000,5.000,0
"03/09/08","21:11:34",22124.000,"cc",28345.809,6.00,6,0.100,12652.000,0.200,6200.000,0.300,1749.000,0.500,1242.000,1.000,281.000,5.000,0
"03/09/08","21:11:40",22158.000,"cc",28366.695,6.00,6,0.100,12608.000,0.200,6203.000,0.300,1878.000,0.500,1208.000,1.000,261.000,5.000,0
"03/09/08","21:11:46",22424.000,"cc",28275.199,6.00,6,0.100,12741.000,0.200,6239.000,0.300,1872.000,0.500,1299.000,1.000,273.000,5.000,0
"03/09/08","21:11:52",22376.000,"cc",28287.539,6.00,6,0.100,12872.000,0.200,6230.000,0.300,1793.000,0.500,1200.000,1.000,281.000,5.000,0
"03/09/08","21:11:58",22382.000,"cc",28379.422,6.00,6,0.100,12808.000,0.200,6246.000,0.300,1818.000,0.500,1240.000,1.000,270.000,5.000,0
"03/09/08","21:12:04",22148.000,"cc",28319.000,6.00,6,0.100,12607.000,0.200,6163.000,0.300,1820.000,0.500,1228.000,1.000,330.000,5.000,0
"03/09/08","21:12:10",21986.000,"cc",28320.213,6.00,6,0.100,12554.000,0.200,6181.000,0.300,1743.000,0.500,1203.000,1.000,305.000,5.000,0
"03/09/08","21:12:16",22138.000,"cc",28259.469,6.00,6,0.100,12683.000,0.200,6128.000,0.300,1761.000,0.500,1273.000,1.000,293.000,5.000,0
"03/09/08","21:12:22",22189.000,"cc",28316.617,6.00,6,0.100,12681.000,0.200,6122.000,0.300,1862.000,0.500,1245.000,1.000,279.000,5.000,0
"03/09/08","21:12:28",22299.000,"cc",28303.170,6.00,6,0.100,12736.000,0.200,6168.000,0.300,1825.000,0.500,1299.000,1.000,271.000,5.000,0
"03/09/08","21:12:34",22705.000,"cc",28308.486,6.00,6,0.100,12800.000,0.200,6224.000,0.300,1933.000,0.500,1455.000,1.000,293.000,5.000,0
"03/09/08","21:12:40",22213.000,"cc",28337.975,6.00,6,0.100,12628.000,0.200,6241.000,0.300,1806.000,0.500,1239.000,1.000,299.000,5.000,0
"03/09/08","21:12:46",22290.000,"cc",28314.014,6.00,6,0.100,12924.000,0.200,6074.000,0.300,1810.000,0.500,1210.000,1.000,272.000,5.000,0
"03/09/08","21:12:52",22091.000,"cc",28303.711,6.00,6,0.100,12673.000,0.200,6051.000,0.300,1838.000,0.500,1254.000,1.000,275.000,5.000,0
"03/09/08","21:12:58",21931.000,"cc",28309.346,6.00,6,0.100,12356.000,0.200,6167.000,0.300,1826.000,0.500,1292.000,1.000,290.000,5.000,0
"03/09/08","21:13:04",24601.000,"cc",28422.096,6.00,6,0.100,13888.000,0.200,6666.000,0.300,2172.000,0.500,1550.000,1.000,325.000,5.000,0
"03/09/08","21:13:10",22562.000,"cc",28235.291,6.00,6,0.100,12746.000,0.200,6298.000,0.300,1964.000,0.500,1276.000,1.000,278.000,5.000,0
"03/09/08","21:13:16",22393.000,"cc",28273.248,6.00,6,0.100,12682.000,0.200,6301.000,0.300,1826.000,0.500,1290.000,1.000,294.000,5.000,0
"03/09/08","21:13:22",22542.000,"cc",28383.551,6.00,6,0.100,12755.000,0.200,6301.000,0.300,1841.000,0.500,1351.000,1.000,294.000,5.000,0
"03/09/08","21:13:28",22489.000,"cc",28375.336,6.00,6,0.100,12788.000,0.200,6193.000,0.300,1927.000,0.500,1289.000,1.000,292.000,5.000,0
"03/09/08","21:13:34",22420.000,"cc",28289.561,6.00,6,0.100,12669.000,0.200,6320.000,0.300,1858.000,0.500,1261.000,1.000,312.000,5.000,0
"03/09/08","21:13:40",23693.000,"cc",28301.908,6.00,6,0.100,13394.000,0.200,6594.000,0.300,2010.000,0.500,1363.000,1.000,332.000,5.000,0
"03/09/08","21:13:46",21932.000,"cc",28399.398,6.00,6,0.100,12370.000,0.200,6241.000,0.300,1789.000,0.500,1236.000,1.000,296.000,5.000,0
"03/09/08","21:13:52",22295.000,"cc",28191.539,6.00,6,0.100,12446.000,0.200,6289.000,0.300,1908.000,0.500,1329.000,1.000,323.000,5.000,0
"03/09/08","21:13:58",22559.000,"cc",28308.580,6.00,6,0.100,12728.000,0.200,6247.000,0.300,1893.000,0.500,1361.000,1.000,330.000,5.000,0
"03/09/08","21:14:04",22636.000,"cc",28348.242,6.00,6,0.100,12791.000,0.200,6404.000,0.300,1870.000,0.500,1256.000,1.000,315.000,5.000,0
"03/09/08","21:14:10",22081.000,"cc",28267.488,6.00,6,0.100,12537.000,0.200,6206.000,0.300,1770.000,0.500,1253.000,1.000,315.000,5.000,0
"03/09/08","21:14:16",23071.000,"cc",28383.715,6.00,6,0.100,12924.000,0.200,6471.000,0.300,2036.000,0.500,1338.000,1.000,302.000,5.000,0
"03/09/08","21:14:22",21984.000,"cc",28331.773,6.00,6,0.100,12390.000,0.200,6315.000,0.300,1765.000,0.500,1239.000,1.000,275.000,5.000,0
"03/09/08","21:14:28",25097.000,"cc",28291.606,6.00,6,0.100,13970.000,0.200,7009.000,0.300,2230.000,0.500,1523.000,1.000,365.000,5.000,0
"03/09/08","21:14:34",22386.000,"cc",28298.510,6.00,6,0.100,12521.000,0.200,6426.000,0.300,1802.000,0.500,1317.000,1.000,320.000,5.000,0
"03/09/08","21:14:40",22776.000,"cc",28310.301,6.00,6,0.100,12866.000,0.200,6453.000,0.300,1828.000,0.500,1335.000,1.000,294.000,5.000,0
"03/09/08","21:14:46",22421.000,"cc",28377.760,6.00,6,0.100,12538.000,0.200,6381.000,0.300,1943.000,0.500,1249.000,1.000,310.000,5.000,0
"03/09/08","21:14:52",22097.000,"cc",28283.982,6.00,6,0.100,12419.000,0.200,6316.000,0.300,1743.000,0.500,1308.000,1.000,311.000,5.000,0
"03/09/08","21:14:58",22796.000,"cc",28273.354,6.00,6,0.100,12786.000,0.200,6430.000,0.300,1842.000,0.500,1407.000,1.000,331.000,5.000,0
"03/09/08","21:15:04",22348.000,"cc",28310.994,6.00,6,0.100,12524.000,0.200,6315.000,0.300,1885.000,0.500,1347.000,1.000,277.000,5.000,0
"03/09/08","21:15:10",22575.000,"cc",28278.475,6.00,6,0.100,12858.000,0.200,6320.000,0.300,1789.000,0.500,1304.000,1.000,304.000,5.000,0
"03/09/08","21:15:16",22765.000,"cc",28355.777,6.00,6,0.100,12901.000,0.200,6445.000,0.300,1805.000,0.500,1306.000,1.000,308.000,5.000,0
"03/09/08","21:15:22",22286.000,"cc",28338.463,6.00,6,0.100,12543.000,0.200,6447.000,0.300,1809.000,0.500,1212.000,1.000,275.000,5.000,0
"03/09/08","21:15:28",22818.000,"cc",28339.512,6.00,6,0.100,12958.000,0.200,6402.000,0.300,1922.000,0.500,1244.000,1.000,292.000,5.000,0
"03/09/08","21:15:34",22703.000,"cc",28299.238,6.00,6,0.100,12732.000,0.200,6360.000,0.300,1872.000,0.500,1400.000,1.000,339.000,5.000,0
"03/09/08","21:15:40",22175.000,"cc",28245.936,6.00,6,0.100,12478.000,0.200,6291.000,0.300,1853.000,0.500,1262.000,1.000,291.000,5.000,0
"03/09/08","21:15:46",22668.000,"cc",28321.004,6.00,6,0.100,12678.000,0.200,6501.000,0.300,1873.000,0.500,1309.000,1.000,307.000,5.000,0
"03/09/08","21:15:52",22682.000,"cc",28346.781,6.00,6,0.100,12786.000,0.200,6420.000,0.300,1926.000,0.500,1286.000,1.000,264.000,5.000,0
"03/09/08","21:15:58",22300.000,"cc",28360.453,6.00,6,0.100,12626.000,0.200,6316.000,0.300,1819.000,0.500,1260.000,1.000,279.000,5.000,0
"03/09/08","21:16:04",22536.000,"cc",28392.813,6.00,6,0.100,12695.000,0.200,6435.000,0.300,1821.000,0.500,1270.000,1.000,315.000,5.000,0
"03/09/08","21:16:10",22718.000,"cc",28316.082,6.00,6,0.100,12822.000,0.200,6418.000,0.300,1837.000,0.500,1326.000,1.000,315.000,5.000,0
"03/09/08","21:16:16",22488.000,"cc",28302.070,6.00,6,0.100,12617.000,0.200,6405.000,0.300,1956.000,0.500,1231.000,1.000,279.000,5.000,0
"03/09/08","21:16:22",22736.000,"cc",28285.272,6.00,6,0.100,12901.000,0.200,6434.000,0.300,1818.000,0.500,1267.000,1.000,316.000,5.000,0